Location: Holiday Acres Laynes 2 Mobile Home Park
(26.7249°N, 81.8671°W)
Time: 06:33:10
(UTC+00:00)

Cosmos 1602 - Pass Details

Date: 25 November 2020
Orbit: 512 x 534 km, 82.5° (Epoch: 21 January)

Event Time Altitude Azimuth Distance (km) Brightness Sun altitude
Rises 23:44:27 0° 5° (N) 2,674 7.1 -15.6°
Enters shadow 23:45:48 - 9° (N) 2,134 6.6 -15.9°
Exits shadow 23:49:04 29° 40° (NE) 999 4.7 -16.6°
Maximum altitude 23:50:22 37° 82° (E) 825 4.2 -16.9°
Drops below altitude 10° 23:53:58 10° 151° (SSE) 1,757 6.2 -17.6°
Sets 23:56:11 0° 159° (SSE) 2,638 7.2 -18.1°
